Location: Unspecified
(0.0000°N, 0.0000°E)
Time: 05:24:21
(UTC+00:00)

DX 1 - Pass Details

Date: 06 July 2020
Orbit: 619 x 630 km, 98.5° (Epoch: 13 August)

Event Time Altitude Azimuth Distance (km) Brightness Sun altitude
Rises 05:20:21 0° 165° (SSE) 2,909 ? -10.3°
Reaches altitude 10° 05:22:33 10° 163° (SSE) 1,998 ? -9.8°
Maximum altitude 05:26:53 76° 78° (ENE) 645 ? -8.8°
Drops below altitude 10° 05:31:12 10° 352° (N) 1,983 ? -7.8°
Sets 05:33:22 0° 351° (N) 2,884 ? -7.3°
